Time,TemperatureF,DewpointF,PressureIn,WindDirection,WindDirectionDegrees,WindSpeedMPH,WindSpeedGustMPH,Humidity,HourlyPrecipIn,Conditions,Clouds,dailyrainin,SolarRadiationWatts/m^2,SoftwareType,DateUTC
2013-09-08 00:00:00,77.3,64.6,29.95,SSE,164,0.0,5.0,65,0.00,,,0.00,0,Wunderground v.1.15,2013-09-08 05:00:00,
2013-09-08 00:06:00,77.2,64.5,29.95,SSE,164,0.0,5.0,65,0.00,,,0.00,0,Wunderground v.1.15,2013-09-08 05:06:00,
2013-09-08 00:14:00,77.0,64.3,29.95,SSE,164,0.0,5.0,65,0.00,,,0.00,0,Wunderground v.1.15,2013-09-08 05:14:00,
2013-09-08 00:20:00,76.9,64.2,29.95,SSE,164,0.0,5.0,65,0.00,,,0.00,0,Wunderground v.1.15,2013-09-08 05:20:00,
2013-09-08 00:26:00,76.8,64.1,29.95,SSE,164,0.0,5.0,65,0.00,,,0.00,0,Wunderground v.1.15,2013-09-08 05:26:00,
2013-09-08 00:32:00,77.0,63.9,29.95,SSE,164,0.0,5.0,64,0.00,,,0.00,0,Wunderground v.1.15,2013-09-08 05:32:00,
2013-09-08 00:38:00,77.2,64.1,29.96,SSE,164,1.0,5.0,64,0.00,,,0.00,0,Wunderground v.1.15,2013-09-08 05:38:00,
2013-09-08 00:44:00,76.9,63.8,29.95,SSE,164,1.0,5.0,64,0.00,,,0.00,0,Wunderground v.1.15,2013-09-08 05:44:00,
2013-09-08 00:50:00,76.9,63.8,29.96,SSE,164,0.0,5.0,64,0.00,,,0.00,0,Wunderground v.1.15,2013-09-08 05:50:00,
2013-09-08 00:56:00,76.6,64.0,29.96,SSE,166,1.0,5.0,65,0.00,,,0.00,0,Wunderground v.1.15,2013-09-08 05:56:00,
2013-09-08 01:02:00,76.8,63.7,29.96,SSE,166,1.0,1.0,64,0.00,,,0.00,0,Wunderground v.1.15,2013-09-08 06:02:00,
2013-09-08 01:08:00,77.0,63.9,29.96,SSE,166,1.0,1.0,64,0.00,,,0.00,0,Wunderground v.1.15,2013-09-08 06:08:00,
2013-09-08 01:14:00,76.8,63.7,29.96,SSE,167,1.0,1.0,64,0.00,,,0.00,0,Wunderground v.1.15,2013-09-08 06:14:00,
2013-09-08 01:20:00,76.6,64.0,29.96,South,170,1.0,4.0,65,0.00,,,0.00,0,Wunderground v.1.15,2013-09-08 06:20:00,
2013-09-08 01:26:00,76.5,63.9,29.96,South,171,2.0,3.0,65,0.00,,,0.00,0,Wunderground v.1.15,2013-09-08 06:26:00,
2013-09-08 01:32:00,76.2,63.6,29.96,South,171,1.0,1.0,65,0.00,,,0.00,0,Wunderground v.1.15,2013-09-08 06:32:00,
2013-09-08 01:38:00,76.0,63.8,29.96,South,171,1.0,1.0,66,0.00,,,0.00,0,Wunderground v.1.15,2013-09-08 06:38:00,
2013-09-08 01:44:00,75.9,63.7,29.96,South,171,0.0,3.0,66,0.00,,,0.00,0,Wunderground v.1.15,2013-09-08 06:44:00,
2013-09-08 01:50:00,75.7,64.0,29.96,South,171,0.0,3.0,67,0.00,,,0.00,0,Wunderground v.1.15,2013-09-08 06:50:00,
2013-09-08 01:56:00,75.1,63.8,29.96,South,171,0.0,3.0,68,0.00,,,0.00,0,Wunderground v.1.15,2013-09-08 06:56:00,
2013-09-08 02:02:00,74.4,64.0,29.96,South,171,0.0,3.0,70,0.00,,,0.00,0,Wunderground v.1.15,2013-09-08 07:02:00,
2013-09-08 02:08:00,73.7,64.1,29.96,South,171,0.0,3.0,72,0.00,,,0.00,0,Wunderground v.1.15,2013-09-08 07:08:00,
2013-09-08 02:14:00,73.4,63.4,29.96,South,171,0.0,3.0,71,0.00,,,0.00,0,Wunderground v.1.15,2013-09-08 07:14:00,
2013-09-08 02:20:00,73.4,63.4,29.96,South,171,0.0,3.0,71,0.00,,,0.00,0,Wunderground v.1.15,2013-09-08 07:20:00,
2013-09-08 02:26:00,74.3,63.5,29.95,South,172,2.0,3.0,69,0.00,,,0.00,0,Wunderground v.1.15,2013-09-08 07:26:00,
2013-09-08 02:32:00,74.6,63.3,29.95,South,172,2.0,2.0,68,0.00,,,0.00,0,Wunderground v.1.15,2013-09-08 07:32:00,
2013-09-08 02:38:00,75.2,63.5,29.95,South,179,2.0,4.0,67,0.00,,,0.00,0,Wunderground v.1.15,2013-09-08 07:38:00,
2013-09-08 02:44:00,75.7,63.5,29.95,South,183,2.0,3.0,66,0.00,,,0.00,0,Wunderground v.1.15,2013-09-08 07:44:00,
2013-09-08 02:50:00,75.8,63.6,29.95,South,191,3.0,4.0,66,0.00,,,0.00,0,Wunderground v.1.15,2013-09-08 07:50:00,
2013-09-08 02:56:00,76.0,63.8,29.95,SSW,193,3.0,5.0,66,0.00,,,0.00,0,Wunderground v.1.15,2013-09-08 07:56:00,
2013-09-08 03:02:00,76.0,63.4,29.95,SSW,193,2.0,2.0,65,0.00,,,0.00,0,Wunderground v.1.15,2013-09-08 08:02:00,
2013-09-08 03:08:00,75.8,63.6,29.95,SSW,193,2.0,3.0,66,0.00,,,0.00,0,Wunderground v.1.15,2013-09-08 08:08:00,
2013-09-08 03:14:00,75.6,63.4,29.95,SSW,193,2.0,3.0,66,0.00,,,0.00,0,Wunderground v.1.15,2013-09-08 08:14:00,
2013-09-08 03:20:00,75.1,63.4,29.95,SSW,193,1.0,3.0,67,0.00,,,0.00,0,Wunderground v.1.15,2013-09-08 08:20:00,
2013-09-08 03:26:00,74.9,63.2,29.95,SSW,193,2.0,4.0,67,0.00,,,0.00,0,Wunderground v.1.15,2013-09-08 08:26:00,
2013-09-08 03:32:00,74.7,63.4,29.95,SSW,193,2.0,2.0,68,0.00,,,0.00,0,Wunderground v.1.15,2013-09-08 08:32:00,
2013-09-08 03:38:00,74.2,63.0,29.95,SSW,193,2.0,3.0,68,0.00,,,0.00,0,Wunderground v.1.15,2013-09-08 08:38:00,
2013-09-08 03:44:00,73.9,63.1,29.94,SSW,193,2.0,3.0,69,0.00,,,0.00,0,Wunderground v.1.15,2013-09-08 08:44:00,
2013-09-08 03:50:00,73.5,62.7,29.94,SSW,193,2.0,3.0,69,0.00,,,0.00,0,Wunderground v.1.15,2013-09-08 08:50:00,
2013-09-08 03:56:00,73.4,63.0,29.95,SSW,193,2.0,3.0,70,0.00,,,0.00,0,Wunderground v.1.15,2013-09-08 08:56:00,
2013-09-08 04:02:00,73.3,62.9,29.95,SSW,193,2.0,3.0,70,0.00,,,0.00,0,Wunderground v.1.15,2013-09-08 09:02:00,
2013-09-08 04:08:00,73.3,62.9,29.95,SSW,193,2.0,3.0,70,0.00,,,0.00,0,Wunderground v.1.15,2013-09-08 09:08:00,
2013-09-08 04:14:00,73.1,63.1,29.95,SSW,193,1.0,3.0,71,0.00,,,0.00,0,Wunderground v.1.15,2013-09-08 09:14:00,
2013-09-08 04:20:00,73.0,63.0,29.95,SSW,193,1.0,3.0,71,0.00,,,0.00,0,Wunderground v.1.15,2013-09-08 09:20:00,
2013-09-08 04:26:00,72.4,62.9,29.95,SSW,193,1.0,3.0,72,0.00,,,0.00,0,Wunderground v.1.15,2013-09-08 09:26:00,
2013-09-08 04:32:00,72.4,63.3,29.95,SSW,193,1.0,3.0,73,0.00,,,0.00,0,Wunderground v.1.15,2013-09-08 09:32:00,
2013-09-08 04:38:00,72.4,63.3,29.95,SSW,193,1.0,3.0,73,0.00,,,0.00,0,Wunderground v.1.15,2013-09-08 09:38:00,
2013-09-08 04:44:00,72.4,63.3,29.95,SSW,193,1.0,3.0,73,0.00,,,0.00,0,Wunderground v.1.15,2013-09-08 09:44:00,
2013-09-08 04:50:00,72.1,63.0,29.95,SSW,193,1.0,3.0,73,0.00,,,0.00,0,Wunderground v.1.15,2013-09-08 09:50:00,
2013-09-08 04:56:00,71.8,63.1,29.95,SSW,193,0.0,3.0,74,0.00,,,0.00,0,Wunderground v.1.15,2013-09-08 09:56:00,
2013-09-08 05:02:00,71.4,63.1,29.95,SSW,193,0.0,3.0,75,0.00,,,0.00,0,Wunderground v.1.15,2013-09-08 10:02:00,
2013-09-08 05:08:00,71.2,62.9,29.95,SSW,193,0.0,3.0,75,0.00,,,0.00,0,Wunderground v.1.15,2013-09-08 10:08:00,
2013-09-08 05:14:00,71.0,63.1,29.95,SSW,193,1.0,3.0,76,0.00,,,0.00,0,Wunderground v.1.15,2013-09-08 10:14:00,
2013-09-08 05:20:00,70.8,63.2,29.95,SSW,193,0.0,3.0,77,0.00,,,0.00,0,Wunderground v.1.15,2013-09-08 10:20:00,
2013-09-08 05:26:00,70.4,62.5,29.95,SSW,193,0.0,3.0,76,0.00,,,0.00,0,Wunderground v.1.15,2013-09-08 10:26:00,
2013-09-08 05:32:00,69.9,62.7,29.95,SSW,193,0.0,3.0,78,0.00,,,0.00,0,Wunderground v.1.15,2013-09-08 10:32:00,
2013-09-08 05:38:00,70.0,62.8,29.95,SSW,193,0.0,3.0,78,0.00,,,0.00,0,Wunderground v.1.15,2013-09-08 10:38:00,
2013-09-08 05:44:00,70.1,62.9,29.95,SSW,193,0.0,3.0,78,0.00,,,0.00,0,Wunderground v.1.15,2013-09-08 10:44:00,
2013-09-08 05:50:00,70.0,62.8,29.95,SSW,193,0.0,3.0,78,0.00,,,0.00,0,Wunderground v.1.15,2013-09-08 10:50:00,
2013-09-08 05:56:00,69.9,63.1,29.95,SSW,193,1.0,3.0,79,0.00,,,0.00,0,Wunderground v.1.15,2013-09-08 10:56:00,
2013-09-08 06:02:00,69.9,63.1,29.95,SSW,193,2.0,3.0,79,0.00,,,0.00,0,Wunderground v.1.15,2013-09-08 11:02:00,
2013-09-08 06:08:00,70.2,63.4,29.96,SSW,193,2.0,3.0,79,0.00,,,0.00,0,Wunderground v.1.15,2013-09-08 11:08:00,
2013-09-08 06:14:00,70.3,63.1,29.96,SSW,193,3.0,3.0,78,0.00,,,0.00,0,Wunderground v.1.15,2013-09-08 11:14:00,
2013-09-08 06:20:00,70.3,63.1,29.96,SSW,193,2.0,4.0,78,0.00,,,0.00,0,Wunderground v.1.15,2013-09-08 11:20:00,
2013-09-08 06:26:00,70.3,62.7,29.96,SSW,193,3.0,3.0,77,0.00,,,0.00,0,Wunderground v.1.15,2013-09-08 11:26:00,
2013-09-08 06:32:00,70.3,62.7,29.96,SSW,193,2.0,3.0,77,0.00,,,0.00,0,Wunderground v.1.15,2013-09-08 11:32:00,
2013-09-08 06:38:00,70.4,62.8,29.96,SSW,193,2.0,3.0,77,0.00,,,0.00,0,Wunderground v.1.15,2013-09-08 11:38:00,
2013-09-08 06:44:00,70.3,62.7,29.96,SSW,193,2.0,3.0,77,0.00,,,0.00,0,Wunderground v.1.15,2013-09-08 11:44:00,
2013-09-08 06:50:00,70.1,62.9,29.96,SSW,193,1.0,3.0,78,0.00,,,0.00,0,Wunderground v.1.15,2013-09-08 11:50:00,
2013-09-08 06:56:00,69.9,63.1,29.95,SSW,193,1.0,3.0,79,0.00,,,0.00,0,Wunderground v.1.15,2013-09-08 11:56:00,
2013-09-08 07:02:00,69.8,63.0,29.95,SSW,193,1.0,1.0,79,0.00,,,0.00,0,Wunderground v.1.15,2013-09-08 12:02:00,
2013-09-08 07:08:00,69.6,62.8,29.95,SSW,193,0.0,3.0,79,0.00,,,0.00,0,Wunderground v.1.15,2013-09-08 12:08:00,
2013-09-08 07:14:00,69.5,62.7,29.96,SSW,193,0.0,3.0,79,0.00,,,0.00,5,Wunderground v.1.15,2013-09-08 12:14:00,
2013-09-08 07:20:00,69.4,63.0,29.95,SSW,193,0.0,3.0,80,0.00,,,0.00,7,Wunderground v.1.15,2013-09-08 12:20:00,
2013-09-08 07:26:00,69.5,63.1,29.95,SSW,193,0.0,3.0,80,0.00,,,0.00,11,Wunderground v.1.15,2013-09-08 12:26:00,
2013-09-08 07:32:00,69.5,63.1,29.96,SSW,193,0.0,3.0,80,0.00,,,0.00,14,Wunderground v.1.15,2013-09-08 12:32:00,
2013-09-08 07:38:00,69.5,63.4,29.96,SSW,193,0.0,3.0,81,0.00,,,0.00,18,Wunderground v.1.15,2013-09-08 12:38:00,
2013-09-08 07:44:00,69.5,63.4,29.95,SSW,193,0.0,3.0,81,0.00,,,0.00,23,Wunderground v.1.15,2013-09-08 12:44:00,
2013-09-08 07:50:00,69.5,63.4,29.96,SSW,193,0.0,3.0,81,0.00,,,0.00,28,Wunderground v.1.15,2013-09-08 12:50:00,
2013-09-08 07:56:00,69.8,63.7,29.96,SSW,193,0.0,3.0,81,0.00,,,0.00,35,Wunderground v.1.15,2013-09-08 12:56:00,
2013-09-08 08:02:00,70.3,63.8,29.96,SSW,193,0.0,3.0,80,0.00,,,0.00,44,Wunderground v.1.15,2013-09-08 13:02:00,
2013-09-08 08:08:00,70.6,63.8,29.96,SSW,193,0.0,3.0,79,0.00,,,0.00,74,Wunderground v.1.15,2013-09-08 13:08:00,
2013-09-08 08:14:00,71.2,64.4,29.96,SSW,193,0.0,3.0,79,0.00,,,0.00,79,Wunderground v.1.15,2013-09-08 13:14:00,
2013-09-08 08:20:00,71.6,64.4,29.96,SSW,193,1.0,3.0,78,0.00,,,0.00,60,Wunderground v.1.15,2013-09-08 13:20:00,
2013-09-08 08:26:00,72.0,64.8,29.95,SSW,193,1.0,3.0,78,0.00,,,0.00,151,Wunderground v.1.15,2013-09-08 13:26:00,
2013-09-08 08:32:00,72.8,65.2,29.95,SSW,193,1.0,1.0,77,0.00,,,0.00,56,Wunderground v.1.15,2013-09-08 13:32:00,
2013-09-08 08:38:00,73.3,65.3,29.95,SSW,193,1.0,3.0,76,0.00,,,0.00,139,Wunderground v.1.15,2013-09-08 13:38:00,
2013-09-08 08:44:00,74.5,65.7,29.95,SSW,193,2.0,3.0,74,0.00,,,0.00,216,Wunderground v.1.15,2013-09-08 13:44:00,
2013-09-08 08:50:00,75.9,66.2,29.95,SSW,194,2.0,4.0,72,0.00,,,0.00,237,Wunderground v.1.15,2013-09-08 13:50:00,
2013-09-08 08:56:00,76.5,66.0,29.95,SSW,193,2.0,3.0,70,0.00,,,0.00,246,Wunderground v.1.15,2013-09-08 13:56:00,
2013-09-08 09:02:00,77.0,66.0,29.95,SSW,193,2.0,2.0,69,0.00,,,0.00,258,Wunderground v.1.15,2013-09-08 14:02:00,
2013-09-08 09:08:00,77.9,66.9,29.95,SSW,193,1.0,3.0,69,0.00,,,0.00,294,Wunderground v.1.15,2013-09-08 14:08:00,
2013-09-08 09:14:00,79.5,68.0,29.95,SSW,195,2.0,2.0,68,0.00,,,0.00,316,Wunderground v.1.15,2013-09-08 14:14:00,
2013-09-08 09:20:00,80.4,66.6,29.95,SSW,199,3.0,6.0,63,0.00,,,0.00,339,Wunderground v.1.15,2013-09-08 14:20:00,
2013-09-08 09:26:00,81.0,66.8,29.95,SSW,197,3.0,3.0,62,0.00,,,0.00,353,Wunderground v.1.15,2013-09-08 14:26:00,
2013-09-08 09:32:00,81.7,67.4,29.96,SSW,202,2.0,7.0,62,0.00,,,0.00,327,Wunderground v.1.15,2013-09-08 14:32:00,
2013-09-08 09:38:00,82.5,67.7,29.95,SSW,198,4.0,7.0,61,0.00,,,0.00,378,Wunderground v.1.15,2013-09-08 14:38:00,
2013-09-08 09:44:00,83.6,68.2,29.95,SSW,201,4.0,4.0,60,0.00,,,0.00,397,Wunderground v.1.15,2013-09-08 14:44:00,
2013-09-08 09:50:00,84.6,68.2,29.96,SSW,193,4.0,4.0,58,0.00,,,0.00,411,Wunderground v.1.15,2013-09-08 14:50:00,
2013-09-08 09:56:00,85.2,66.7,29.96,SSW,206,4.0,7.0,54,0.00,,,0.00,431,Wunderground v.1.15,2013-09-08 14:56:00,
2013-09-08 10:02:00,85.5,67.5,29.96,SSW,208,4.0,4.0,55,0.00,,,0.00,448,Wunderground v.1.15,2013-09-08 15:02:00,
2013-09-08 10:08:00,86.0,67.4,29.96,South,191,3.0,6.0,54,0.00,,,0.00,468,Wunderground v.1.15,2013-09-08 15:08:00,
2013-09-08 10:14:00,87.0,67.8,29.96,SW,216,4.0,5.0,53,0.00,,,0.00,485,Wunderground v.1.15,2013-09-08 15:14:00,
2013-09-08 10:20:00,87.9,68.1,29.96,SW,221,3.0,7.0,52,0.00,,,0.00,499,Wunderground v.1.15,2013-09-08 15:20:00,
2013-09-08 10:26:00,88.2,67.2,29.96,SSW,204,4.0,6.0,50,0.00,,,0.00,513,Wunderground v.1.15,2013-09-08 15:26:00,
2013-09-08 10:32:00,88.5,66.9,29.96,SSW,201,3.0,3.0,49,0.00,,,0.00,534,Wunderground v.1.15,2013-09-08 15:32:00,
2013-09-08 10:38:00,88.8,66.6,29.96,SW,214,4.0,7.0,48,0.00,,,0.00,545,Wunderground v.1.15,2013-09-08 15:38:00,
2013-09-08 10:44:00,89.4,67.1,29.95,SSW,198,4.0,5.0,48,0.00,,,0.00,559,Wunderground v.1.15,2013-09-08 15:44:00,
2013-09-08 10:50:00,89.6,66.1,29.95,SW,217,4.0,5.0,46,0.00,,,0.00,571,Wunderground v.1.15,2013-09-08 15:50:00,
2013-09-08 10:56:00,90.2,67.9,29.95,SW,218,3.0,5.0,48,0.00,,,0.00,584,Wunderground v.1.15,2013-09-08 15:56:00,
2013-09-08 11:02:00,90.6,67.0,29.95,SW,226,4.0,4.0,46,0.00,,,0.00,598,Wunderground v.1.15,2013-09-08 16:02:00,
2013-09-08 11:08:00,90.8,67.8,29.95,SSW,209,4.0,5.0,47,0.00,,,0.00,610,Wunderground v.1.15,2013-09-08 16:08:00,
2013-09-08 11:14:00,91.1,68.7,29.95,SW,221,4.0,4.0,48,0.00,,,0.00,622,Wunderground v.1.15,2013-09-08 16:14:00,
2013-09-08 11:20:00,91.7,66.7,29.95,SSW,212,3.0,4.0,44,0.00,,,0.00,633,Wunderground v.1.15,2013-09-08 16:20:00,
2013-09-08 11:26:00,91.6,68.5,29.95,SSW,210,3.0,6.0,47,0.00,,,0.00,647,Wunderground v.1.15,2013-09-08 16:26:00,
2013-09-08 11:32:00,91.8,66.8,29.95,South,191,4.0,4.0,44,0.00,,,0.00,661,Wunderground v.1.15,2013-09-08 16:32:00,
2013-09-08 11:38:00,92.2,67.1,29.95,South,189,4.0,4.0,44,0.00,,,0.00,670,Wunderground v.1.15,2013-09-08 16:38:00,
2013-09-08 11:44:00,92.7,66.2,29.95,SW,227,4.0,6.0,42,0.00,,,0.00,680,Wunderground v.1.15,2013-09-08 16:44:00,
2013-09-08 11:50:00,93.5,65.6,29.95,South,184,4.0,8.0,40,0.00,,,0.00,691,Wunderground v.1.15,2013-09-08 16:50:00,
2013-09-08 11:56:00,93.5,67.6,29.94,SSW,192,5.0,6.0,43,0.00,,,0.00,701,Wunderground v.1.15,2013-09-08 16:56:00,
2013-09-08 12:02:00,93.8,67.9,29.94,SSW,202,4.0,6.0,43,0.00,,,0.00,712,Wunderground v.1.15,2013-09-08 17:02:00,
2013-09-08 12:08:00,94.1,66.8,29.94,SW,214,4.0,6.0,41,0.00,,,0.00,717,Wunderground v.1.15,2013-09-08 17:08:00,
2013-09-08 12:14:00,94.5,67.2,29.94,South,183,4.0,6.0,41,0.00,,,0.00,728,Wunderground v.1.15,2013-09-08 17:14:00,
2013-09-08 12:20:00,94.9,66.8,29.95,SSW,201,4.0,6.0,40,0.00,,,0.00,733,Wunderground v.1.15,2013-09-08 17:20:00,
2013-09-08 12:26:00,95.7,66.0,29.94,SSW,212,3.0,10.0,38,0.00,,,0.00,742,Wunderground v.1.15,2013-09-08 17:26:00,
2013-09-08 12:32:00,95.8,66.9,29.94,South,187,4.0,4.0,39,0.00,,,0.00,742,Wunderground v.1.15,2013-09-08 17:32:00,
2013-09-08 12:38:00,96.2,67.2,29.94,SW,215,3.0,4.0,39,0.00,,,0.00,754,Wunderground v.1.15,2013-09-08 17:38:00,
2013-09-08 12:44:00,96.6,66.8,29.94,SSW,212,4.0,7.0,38,0.00,,,0.00,759,Wunderground v.1.15,2013-09-08 17:44:00,
2013-09-08 12:50:00,96.8,68.5,29.93,South,172,4.0,7.0,40,0.00,,,0.00,759,Wunderground v.1.15,2013-09-08 17:50:00,
2013-09-08 12:56:00,96.8,67.0,29.93,South,170,4.0,7.0,38,0.00,,,0.00,761,Wunderground v.1.15,2013-09-08 17:56:00,
2013-09-08 13:02:00,97.2,64.2,29.93,South,181,5.0,5.0,34,0.00,,,0.00,768,Wunderground v.1.15,2013-09-08 18:02:00,
2013-09-08 13:08:00,97.8,64.7,29.93,SSW,195,6.0,7.0,34,0.00,,,0.00,772,Wunderground v.1.15,2013-09-08 18:08:00,
2013-09-08 13:14:00,97.8,64.7,29.93,South,182,5.0,5.0,34,0.00,,,0.00,775,Wunderground v.1.15,2013-09-08 18:14:00,
2013-09-08 13:20:00,97.8,64.7,29.93,South,172,5.0,7.0,34,0.00,,,0.00,786,Wunderground v.1.15,2013-09-08 18:20:00,
2013-09-08 13:26:00,98.0,64.0,29.93,SSW,196,5.0,5.0,33,0.00,,,0.00,777,Wunderground v.1.15,2013-09-08 18:26:00,
2013-09-08 13:32:00,98.0,65.7,29.93,SSW,212,5.0,5.0,35,0.00,,,0.00,754,Wunderground v.1.15,2013-09-08 18:32:00,
2013-09-08 13:38:00,98.3,63.4,29.92,SSE,167,5.0,8.0,32,0.00,,,0.00,782,Wunderground v.1.15,2013-09-08 18:38:00,
2013-09-08 13:44:00,98.4,65.2,29.92,SW,226,5.0,7.0,34,0.00,,,0.00,775,Wunderground v.1.15,2013-09-08 18:44:00,
2013-09-08 13:50:00,98.6,64.5,29.92,SSW,193,3.0,7.0,33,0.00,,,0.00,786,Wunderground v.1.15,2013-09-08 18:50:00,
2013-09-08 13:56:00,98.3,62.5,29.92,SSW,209,4.0,11.0,31,0.00,,,0.00,791,Wunderground v.1.15,2013-09-08 18:56:00,
2013-09-08 14:02:00,98.7,67.9,29.92,SSW,201,5.0,5.0,37,0.00,,,0.00,775,Wunderground v.1.15,2013-09-08 19:02:00,
2013-09-08 14:08:00,99.0,64.0,29.91,SW,220,5.0,8.0,32,0.00,,,0.00,770,Wunderground v.1.15,2013-09-08 19:08:00,
2013-09-08 14:14:00,99.1,61.3,29.91,SSW,192,6.0,10.0,29,0.00,,,0.00,763,Wunderground v.1.15,2013-09-08 19:14:00,
2013-09-08 14:20:00,99.1,63.2,29.91,SSE,154,7.0,10.0,31,0.00,,,0.00,740,Wunderground v.1.15,2013-09-08 19:20:00,
2013-09-08 14:26:00,99.4,63.4,29.91,SSE,168,7.0,8.0,31,0.00,,,0.00,763,Wunderground v.1.15,2013-09-08 19:26:00,
2013-09-08 14:32:00,99.1,63.2,29.91,SSE,149,6.0,6.0,31,0.00,,,0.00,752,Wunderground v.1.15,2013-09-08 19:32:00,
2013-09-08 14:38:00,99.4,63.4,29.91,SSE,166,6.0,7.0,31,0.00,,,0.00,751,Wunderground v.1.15,2013-09-08 19:38:00,
2013-09-08 14:44:00,99.1,63.2,29.90,SSE,162,6.0,11.0,31,0.00,,,0.00,738,Wunderground v.1.15,2013-09-08 19:44:00,
2013-09-08 14:50:00,99.1,63.2,29.90,SSE,168,6.0,11.0,31,0.00,,,0.00,728,Wunderground v.1.15,2013-09-08 19:50:00,
2013-09-08 14:56:00,99.1,61.3,29.90,SSE,147,5.0,9.0,29,0.00,,,0.00,715,Wunderground v.1.15,2013-09-08 19:56:00,
2013-09-08 15:02:00,99.3,62.4,29.90,SSW,201,7.0,7.0,30,0.00,,,0.00,700,Wunderground v.1.15,2013-09-08 20:02:00,
2013-09-08 15:08:00,99.4,62.5,29.90,SW,215,7.0,14.0,30,0.00,,,0.00,714,Wunderground v.1.15,2013-09-08 20:08:00,
2013-09-08 15:14:00,99.8,63.8,29.90,South,181,8.0,8.0,31,0.00,,,0.00,701,Wunderground v.1.15,2013-09-08 20:14:00,
2013-09-08 15:20:00,99.7,61.8,29.89,SSE,162,6.0,8.0,29,0.00,,,0.00,682,Wunderground v.1.15,2013-09-08 20:20:00,
2013-09-08 15:26:00,99.5,60.6,29.89,South,177,6.0,9.0,28,0.00,,,0.00,673,Wunderground v.1.15,2013-09-08 20:26:00,
2013-09-08 15:32:00,99.6,61.7,29.89,SSE,150,7.0,12.0,29,0.00,,,0.00,663,Wunderground v.1.15,2013-09-08 20:32:00,
2013-09-08 15:38:00,99.8,61.9,29.88,South,180,7.0,12.0,29,0.00,,,0.00,659,Wunderground v.1.15,2013-09-08 20:38:00,
2013-09-08 15:44:00,99.7,61.8,29.88,SSW,205,6.0,7.0,29,0.00,,,0.00,640,Wunderground v.1.15,2013-09-08 20:44:00,
2013-09-08 15:50:00,99.7,61.8,29.88,South,170,5.0,7.0,29,0.00,,,0.00,636,Wunderground v.1.15,2013-09-08 20:50:00,
2013-09-08 15:56:00,99.8,60.9,29.88,SSW,197,5.0,5.0,28,0.00,,,0.00,624,Wunderground v.1.15,2013-09-08 20:56:00,
2013-09-08 16:02:00,99.6,60.7,29.88,SSE,166,6.0,6.0,28,0.00,,,0.00,608,Wunderground v.1.15,2013-09-08 21:02:00,
2013-09-08 16:08:00,99.6,60.7,29.88,SSW,202,6.0,9.0,28,0.00,,,0.00,592,Wunderground v.1.15,2013-09-08 21:08:00,
2013-09-08 16:14:00,99.5,61.6,29.88,SSE,167,6.0,8.0,29,0.00,,,0.00,585,Wunderground v.1.15,2013-09-08 21:14:00,
2013-09-08 16:20:00,99.6,59.7,29.88,SSE,147,7.0,8.0,27,0.00,,,0.00,570,Wunderground v.1.15,2013-09-08 21:20:00,
2013-09-08 16:26:00,99.3,60.5,29.88,SSW,204,8.0,14.0,28,0.00,,,0.00,559,Wunderground v.1.15,2013-09-08 21:26:00,
2013-09-08 16:32:00,99.2,59.3,29.87,South,187,7.0,7.0,27,0.00,,,0.00,540,Wunderground v.1.15,2013-09-08 21:32:00,
2013-09-08 16:38:00,99.2,59.3,29.87,South,183,6.0,11.0,27,0.00,,,0.00,526,Wunderground v.1.15,2013-09-08 21:38:00,
2013-09-08 16:44:00,99.1,60.3,29.87,South,187,7.0,9.0,28,0.00,,,0.00,506,Wunderground v.1.15,2013-09-08 21:44:00,
2013-09-08 16:50:00,98.9,60.1,29.88,SSW,192,6.0,9.0,28,0.00,,,0.00,494,Wunderground v.1.15,2013-09-08 21:50:00,
2013-09-08 16:56:00,99.0,61.2,29.87,South,170,5.0,7.0,29,0.00,,,0.00,480,Wunderground v.1.15,2013-09-08 21:56:00,
2013-09-08 17:02:00,98.7,59.9,29.87,SE,134,7.0,7.0,28,0.00,,,0.00,455,Wunderground v.1.15,2013-09-08 22:02:00,
2013-09-08 17:08:00,98.9,60.1,29.87,SSE,156,7.0,7.0,28,0.00,,,0.00,436,Wunderground v.1.15,2013-09-08 22:08:00,
2013-09-08 17:14:00,98.7,59.9,29.87,SE,145,8.0,10.0,28,0.00,,,0.00,420,Wunderground v.1.15,2013-09-08 22:14:00,
2013-09-08 17:20:00,98.4,59.7,29.87,South,181,7.0,10.0,28,0.00,,,0.00,392,Wunderground v.1.15,2013-09-08 22:20:00,
2013-09-08 17:26:00,98.2,59.5,29.87,South,185,5.0,7.0,28,0.00,,,0.00,371,Wunderground v.1.15,2013-09-08 22:26:00,
2013-09-08 17:32:00,98.0,59.3,29.87,South,183,5.0,9.0,28,0.00,,,0.00,353,Wunderground v.1.15,2013-09-08 22:32:00,
2013-09-08 17:38:00,97.9,63.0,29.87,SSW,211,6.0,11.0,32,0.00,,,0.00,343,Wunderground v.1.15,2013-09-08 22:38:00,
2013-09-08 17:44:00,97.8,60.2,29.87,SSW,199,5.0,7.0,29,0.00,,,0.00,325,Wunderground v.1.15,2013-09-08 22:44:00,
2013-09-08 17:50:00,97.6,58.0,29.87,South,187,6.0,7.0,27,0.00,,,0.00,302,Wunderground v.1.15,2013-09-08 22:50:00,
2013-09-08 17:56:00,97.4,59.8,29.87,SSE,163,7.0,8.0,29,0.00,,,0.00,287,Wunderground v.1.15,2013-09-08 22:56:00,
2013-09-08 18:02:00,97.2,58.7,29.87,SSW,195,6.0,7.0,28,0.00,,,0.00,274,Wunderground v.1.15,2013-09-08 23:02:00,
2013-09-08 18:08:00,97.0,59.5,29.86,SSW,196,5.0,7.0,29,0.00,,,0.00,257,Wunderground v.1.15,2013-09-08 23:08:00,
2013-09-08 18:14:00,96.9,59.4,29.87,SSW,210,5.0,5.0,29,0.00,,,0.00,237,Wunderground v.1.15,2013-09-08 23:14:00,
2013-09-08 18:20:00,96.6,59.1,29.86,SSW,213,5.0,6.0,29,0.00,,,0.00,206,Wunderground v.1.15,2013-09-08 23:20:00,
2013-09-08 18:26:00,96.3,58.9,29.86,SSW,208,5.0,8.0,29,0.00,,,0.00,190,Wunderground v.1.15,2013-09-08 23:26:00,
2013-09-08 18:32:00,96.0,60.5,29.86,South,172,5.0,5.0,31,0.00,,,0.00,178,Wunderground v.1.15,2013-09-08 23:32:00,
2013-09-08 18:38:00,95.7,60.2,29.86,SSE,167,6.0,8.0,31,0.00,,,0.00,156,Wunderground v.1.15,2013-09-08 23:38:00,
2013-09-08 18:44:00,95.4,60.0,29.86,SW,235,5.0,6.0,31,0.00,,,0.00,135,Wunderground v.1.15,2013-09-08 23:44:00,
2013-09-08 18:50:00,94.9,60.4,29.86,SSE,166,4.0,6.0,32,0.00,,,0.00,116,Wunderground v.1.15,2013-09-08 23:50:00,
2013-09-08 18:56:00,94.5,60.1,29.86,SSE,167,4.0,5.0,32,0.00,,,0.00,81,Wunderground v.1.15,2013-09-08 23:56:00,
2013-09-08 19:02:00,94.0,59.7,29.87,SSW,205,5.0,6.0,32,0.00,,,0.00,40,Wunderground v.1.15,2013-09-09 00:02:00,
2013-09-08 19:08:00,93.8,60.3,29.87,South,171,5.0,8.0,33,0.00,,,0.00,37,Wunderground v.1.15,2013-09-09 00:08:00,
2013-09-08 19:14:00,93.5,60.9,29.87,South,182,5.0,5.0,34,0.00,,,0.00,30,Wunderground v.1.15,2013-09-09 00:14:00,
2013-09-08 19:22:00,92.3,60.7,29.87,South,181,4.0,4.0,35,0.00,,,0.00,23,Wunderground v.1.15,2013-09-09 00:22:00,
2013-09-08 19:28:00,91.8,61.0,29.87,SSE,167,4.0,4.0,36,0.00,,,0.00,19,Wunderground v.1.15,2013-09-09 00:28:00,
2013-09-08 19:34:00,91.5,60.8,29.87,SSE,162,5.0,7.0,36,0.00,,,0.00,14,Wunderground v.1.15,2013-09-09 00:34:00,
2013-09-08 19:40:00,91.5,61.6,29.87,SSE,166,6.0,7.0,37,0.00,,,0.00,9,Wunderground v.1.15,2013-09-09 00:40:00,
2013-09-08 19:46:00,91.2,61.3,29.87,SSW,208,6.0,6.0,37,0.00,,,0.00,5,Wunderground v.1.15,2013-09-09 00:46:00,
2013-09-08 19:52:00,90.8,60.9,29.87,South,172,5.0,7.0,37,0.00,,,0.00,0,Wunderground v.1.15,2013-09-09 00:52:00,
2013-09-08 19:58:00,90.4,61.3,29.87,South,180,5.0,7.0,38,0.00,,,0.00,0,Wunderground v.1.15,2013-09-09 00:58:00,
2013-09-08 20:04:00,90.0,61.0,29.88,South,174,4.0,5.0,38,0.00,,,0.00,0,Wunderground v.1.15,2013-09-09 01:04:00,
2013-09-08 20:10:00,89.6,61.4,29.88,SSW,197,4.0,5.0,39,0.00,,,0.00,0,Wunderground v.1.15,2013-09-09 01:10:00,
2013-09-08 20:16:00,89.2,61.0,29.88,South,175,4.0,10.0,39,0.00,,,0.00,0,Wunderground v.1.15,2013-09-09 01:16:00,
2013-09-08 20:22:00,88.7,60.6,29.88,South,170,4.0,4.0,39,0.00,,,0.00,0,Wunderground v.1.15,2013-09-09 01:22:00,
2013-09-08 20:28:00,88.5,60.4,29.88,South,173,4.0,5.0,39,0.00,,,0.00,0,Wunderground v.1.15,2013-09-09 01:28:00,
2013-09-08 20:34:00,88.3,60.9,29.88,South,190,4.0,4.0,40,0.00,,,0.00,0,Wunderground v.1.15,2013-09-09 01:34:00,
2013-09-08 20:40:00,88.0,60.7,29.88,SSW,197,4.0,4.0,40,0.00,,,0.00,0,Wunderground v.1.15,2013-09-09 01:40:00,
2013-09-08 20:46:00,87.4,60.8,29.88,SSE,166,3.0,4.0,41,0.00,,,0.00,0,Wunderground v.1.15,2013-09-09 01:46:00,
2013-09-08 20:52:00,87.0,60.5,29.89,South,173,3.0,3.0,41,0.00,,,0.00,0,Wunderground v.1.15,2013-09-09 01:52:00,
2013-09-08 20:58:00,86.5,60.7,29.88,South,177,3.0,4.0,42,0.00,,,0.00,0,Wunderground v.1.15,2013-09-09 01:58:00,
2013-09-08 21:04:00,85.9,60.8,29.88,SSE,166,3.0,3.0,43,0.00,,,0.00,0,Wunderground v.1.15,2013-09-09 02:04:00,
2013-09-08 21:10:00,85.4,61.0,29.89,South,172,3.0,5.0,44,0.00,,,0.00,0,Wunderground v.1.15,2013-09-09 02:10:00,
2013-09-08 21:15:00,85.1,60.7,29.89,South,176,4.0,5.0,44,0.00,,,0.00,0,Wunderground v.1.15,2013-09-09 02:15:00,
2013-09-08 21:22:00,84.5,60.8,29.89,SSE,166,3.0,3.0,45,0.00,,,0.00,0,Wunderground v.1.15,2013-09-09 02:22:00,
2013-09-08 21:28:00,84.0,61.0,29.90,South,173,3.0,3.0,46,0.00,,,0.00,0,Wunderground v.1.15,2013-09-09 02:28:00,
2013-09-08 21:34:00,84.2,61.2,29.89,SSW,203,4.0,5.0,46,0.00,,,0.00,0,Wunderground v.1.15,2013-09-09 02:34:00,
2013-09-08 21:40:00,84.5,61.4,29.89,South,181,4.0,5.0,46,0.00,,,0.00,0,Wunderground v.1.15,2013-09-09 02:40:00,
2013-09-08 21:46:00,84.5,61.4,29.89,South,177,5.0,6.0,46,0.00,,,0.00,0,Wunderground v.1.15,2013-09-09 02:46:00,
2013-09-08 21:52:00,84.4,61.4,29.90,South,172,4.0,4.0,46,0.00,,,0.00,0,Wunderground v.1.15,2013-09-09 02:52:00,
2013-09-08 21:58:00,84.4,61.4,29.90,South,187,4.0,6.0,46,0.00,,,0.00,0,Wunderground v.1.15,2013-09-09 02:58:00,
2013-09-08 22:04:00,84.4,61.4,29.90,South,186,5.0,5.0,46,0.00,,,0.00,0,Wunderground v.1.15,2013-09-09 03:04:00,
2013-09-08 22:10:00,84.3,61.3,29.90,South,179,4.0,6.0,46,0.00,,,0.00,0,Wunderground v.1.15,2013-09-09 03:10:00,
2013-09-08 22:16:00,84.1,61.1,29.90,South,170,4.0,5.0,46,0.00,,,0.00,0,Wunderground v.1.15,2013-09-09 03:16:00,
2013-09-08 22:22:00,83.7,61.3,29.91,South,170,4.0,4.0,47,0.00,,,0.00,0,Wunderground v.1.15,2013-09-09 03:22:00,
2013-09-08 22:28:00,83.5,61.1,29.91,South,173,4.0,6.0,47,0.00,,,0.00,0,Wunderground v.1.15,2013-09-09 03:28:00,
2013-09-08 22:34:00,83.3,61.0,29.91,SSE,150,3.0,5.0,47,0.00,,,0.00,0,Wunderground v.1.15,2013-09-09 03:34:00,
2013-09-08 22:40:00,82.9,61.2,29.92,South,179,3.0,5.0,48,0.00,,,0.00,0,Wunderground v.1.15,2013-09-09 03:40:00,
2013-09-08 22:46:00,82.6,60.9,29.92,South,180,3.0,5.0,48,0.00,,,0.00,0,Wunderground v.1.15,2013-09-09 03:46:00,
2013-09-08 22:52:00,82.3,61.2,29.92,SSE,166,3.0,3.0,49,0.00,,,0.00,0,Wunderground v.1.15,2013-09-09 03:52:00,
2013-09-08 22:58:00,82.1,61.0,29.92,South,182,3.0,6.0,49,0.00,,,0.00,0,Wunderground v.1.15,2013-09-09 03:58:00,
2013-09-08 23:02:00,82.0,61.0,29.92,South,188,3.0,3.0,49,0.00,,,0.00,0,Wunderground v.1.15,2013-09-09 04:02:00,
2013-09-08 23:06:00,81.8,61.3,29.92,South,170,3.0,4.0,50,0.00,,,0.00,0,Wunderground v.1.15,2013-09-09 04:06:00,
2013-09-08 23:10:00,81.6,61.2,29.92,SSE,168,3.0,4.0,50,0.00,,,0.00,0,Wunderground v.1.15,2013-09-09 04:10:00,
2013-09-08 23:12:00,81.4,61.0,29.92,SSE,163,3.0,4.0,50,0.00,,,0.00,0,Wunderground v.1.15,2013-09-09 04:12:00,
2013-09-08 23:18:00,81.0,61.2,29.92,SSE,166,3.0,4.0,51,0.00,,,0.00,0,Wunderground v.1.15,2013-09-09 04:18:00,
2013-09-08 23:24:00,80.7,60.9,29.92,SSE,166,3.0,4.0,51,0.00,,,0.00,0,Wunderground v.1.15,2013-09-09 04:24:00,
2013-09-08 23:28:00,80.5,61.3,29.92,SSE,159,3.0,4.0,52,0.00,,,0.00,0,Wunderground v.1.15,2013-09-09 04:28:00,
2013-09-08 23:34:00,80.2,61.0,29.93,SSE,163,2.0,3.0,52,0.00,,,0.00,0,Wunderground v.1.15,2013-09-09 04:34:00,
2013-09-08 23:40:00,79.9,61.2,29.92,SSE,164,3.0,4.0,53,0.00,,,0.00,0,Wunderground v.1.15,2013-09-09 04:40:00,
2013-09-08 23:46:00,79.4,61.3,29.92,SSE,167,3.0,4.0,54,0.00,,,0.00,0,Wunderground v.1.15,2013-09-09 04:46:00,
2013-09-08 23:52:00,79.1,61.5,29.92,SSE,168,3.0,3.0,55,0.00,,,0.00,0,Wunderground v.1.15,2013-09-09 04:52:00,
2013-09-08 23:58:00,78.7,61.2,29.92,SSE,166,3.0,5.0,55,0.00,,,0.00,0,Wunderground v.1.15,2013-09-09 04:58:00,